Dewpoint
21 20 17 16 13 9 9 7 7 8 9 9 10 11 7 5 5 7 7 5 6 6 6 8 13 11 18 30 40 46 52 53 55 56 57 58 58 59 59 60 60 60 60 62 62 63 64 65 66 66 65 65 66 66 66 66 65 65 65 65 64 65 65 65 66 65 65 65 65 64 63 63 64 65 65 65 65 64 65 65 66 66 65 65 66 66
19 20 19 17 11 8 7 11 18 9 8 6 8 10 9 6 4 5 5 6 5 16 7 11 19 46 47 42 47 52 53 54 55 56 57 58 59 60 60 60 60 61 62 62 62 63 63 63 64 64 64 65 64 65 65 65 65 65 65 65 64 63 64 65 65 66 65 64 64 63 64 64 63 64 65 65 65 65 65 65 66 66 65 64 65 66
19 18 19 17 11 9 11 13 16 14 14 10 8 8 7 4 9 8 9 6 5 6 13 14 46 51 52 53 53 53 54 55 57 58 58 59 59 59 59 59 59 60 60 60 61 61 62 62 63 63 63 63 64 64 64 65 64 64 64 64 64 63 64 64 65 63 63 64 64 64 63 64 63 64 66 66 66 66 65 65 65 65 65 65 65 65
20 18 19 18 15 12 11 11 12 13 15 15 17 11 7 6 8 8 16 6 6 9 15 46 50 51 53 54 55 56 56 57 58 59 59 59 59 58 58 58 58 58 59 59 60 60 61 61 61 62 62 63 63 63 63 64 64 64 64 64 64 64 64 63 65 64 64 64 64 65 64 65 64 63 65 65 65 65 65 65 65 65 65 65 64 64
18 18 19 18 15 13 15 14 12 13 10 16 13 11 8 7 7 7 13 15 7 15 46 47 46 45 51 52 53 55 56 56 56 56 56 56 57 57 57 57 58 57 58 58 59 59 60 60 60 60 61 61 61 62 62 64 64 64 64 64 62 62 62 62 63 63 64 64 62 62 63 63 62 62 62 63 64 64 65 65 64 65 65 65 65 64
18 18 18 17 17 14 15 15 12 13 10 11 16 10 8 8 9 10 16 11 10 20 39 36 31 37 48 52 53 54 55 54 55 55 55 55 55 55 56 56 57 57 58 58 58 59 59 58 59 59 59 59 59 60 61 61 61 61 62 61 60 60 60 61 61 62 63 63 63 62 62 61 60 61 61 60 60 63 64 65 64 64 65 65 65 65
18 19 17 17 17 16 14 14 14 13 11 12 11 10 9 8 11 11 9 15 9 6 18 33 32 35 46 50 52 53 53 52 53 54 54 54 54 54 55 55 56 56 57 57 58 58 57 57 58 58 58 58 59 59 60 60 60 60 60 60 60 59 60 61 61 61 62 61 62 61 62 61 61 61 61 62 63 63 64 64 64 64 64 65 65 65
16 17 18 17 17 16 15 14 14 11 10 8 11 9 9 8 8 10 9 9 15 22 23 27 36 40 41 48 52 52 51 51 51 52 53 53 53 54 54 55 55 55 56 56 56 57 56 57 56 56 57 57 58 58 58 58 59 59 59 59 59 59 59 60 60 60 61 60 60 61 61 61 61 62 63 63 63 63 63 63 64 64 64 65 66 65
20 17 18 17 18 16 14 15 14 10 8 8 8 10 11 9 9 9 10 17 20 15 11 28 38 37 38 47 52 51 49 49 49 50 51 52 53 53 54 54 55 55 55 55 55 56 55 56 56 55 55 56 56 57 57 57 57 57 58 58 58 58 59 59 60 60 60 61 60 60 60 60 60 61 62 63 64 64 63 62 62 63 63 64 64 64
15 16 17 17 17 16 15 14 13 9 6 5 8 12 11 12 12 10 12 10 17 13 11 27 33 29 32 46 48 50 49 48 49 50 51 51 52 53 53 54 54 54 54 54 55 54 54 54 54 55 54 54 55 56 57 56 56 56 56 56 56 57 58 59 59 59 59 60 60 59 59 58 58 59 60 61 61 62 63 63 63 63 63 63 63 63
14 24 21 15 15 16 14 11 11 8 5 12 7 7 10 10 16 18 18 19 18 11 13 23 30 32 32 43 46 46 47 49 49 50 51 51 52 52 53 54 54 53 53 53 53 53 53 53 53 53 53 54 54 55 55 55 55 55 56 56 55 56 56 57 58 58 58 58 58 58 58 58 58 58 59 59 59 60 61 61 62 63 63 63 63 63
15 13 15 15 18 14 13 11 8 7 5 5 8 7 9 13 14 14 13 20 8 10 16 21 29 29 26 37 47 47 48 50 50 49 49 50 51 52 53 53 53 53 52 52 52 52 52 52 52 52 52 53 54 54 54 54 55 55 55 55 54 54 55 56 56 57 57 57 57 57 57 57 57 57 58 58 58 59 59 60 61 62 63 63 63 63
14 13 13 13 24 11 10 9 8 6 4 4 7 10 8 14 11 7 8 7 7 9 16 21 25 27 35 41 46 47 49 50 50 50 50 50 51 51 52 52 52 52 52 51 51 51 52 52 52 52 52 53 53 53 53 54 55 55 54 54 54 54 54 55 55 56 56 57 56 56 56 56 57 56 57 57 56 57 57 58 59 60 59 61 61 62
14 15 13 11 12 16 9 7 7 5 5 4 4 12 9 7 5 4 10 14 12 14 21 22 24 35 42 45 47 48 49 50 49 50 50 50 51 51 51 51 51 51 51 51 51 51 50 50 51 51 51 52 53 53 53 53 53 53 53 54 54 54 54 54 54 55 55 55 55 55 56 56 56 56 56 56 55 56 56 57 57 58 58 59 60 60
14 12 14 11 9 12 9 7 6 9 7 4 8 9 13 13 12 3 10 6 7 9 18 28 20 23 38 41 48 48 49 49 49 49 49 50 50 50 50 51 50 50 50 50 50 50 50 50 49 49 50 50 52 53 52 53 53 53 53 53 53 53 53 53 53 54 54 54 54 54 54 55 56 56 55 55 55 55 56 56 56 56 57 58 58 60
11 15 22 15 14 12 10 8 7 5 6 6 7 12 13 10 22 9 16 15 12 11 12 30 33 40 40 46 48 47 47 48 48 48 49 49 49 49 49 49 49 49 49 49 49 50 50 50 50 50 51 51 52 51 51 51 52 52 52 52 52 52 53 53 54 53 53 53 54 53 53 53 55 55 54 54 54 55 56 55 55 55 57 57 58 59
14 14 18 15 14 12 11 8 6 5 8 13 6 8 9 18 17 18 11 24 18 20 19 35 39 42 46 47 47 47 47 47 47 48 48 48 48 48 48 49 48 48 48 48 49 49 50 51 51 52 52 51 52 52 51 50 51 51 51 51 51 51 52 52 52 52 52 53 52 52 52 52 52 52 52 53 53 53 54 54 54 55 56 57 57 58
17 21 20 14 13 12 12 7 6 5 15 10 5 5 10 18 24 19 12 12 14 12 23 38 36 37 39 34 46 45 46 47 47 47 47 48 48 48 48 47 47 47 47 47 48 48 49 49 49 49 49 50 50 50 49 50 50 51 51 51 50 51 51 51 51 51 51 52 52 52 51 51 52 52 53 53 53 53 53 53 54 54 55 55 56 57
19 13 15 13 13 13 13 8 9 8 12 6 4 8 8 8 12 18 19 6 5 12 28 35 37 38 38 37 43 43 44 45 46 47 47 47 47 47 46 46 46 46 46 46 47 47 48 47 48 48 48 49 50 50 49 50 50 50 50 51 50 50 51 51 51 51 52 52 52 52 52 51 52 52 52 53 53 53 52 52 52 53 53 53 54 54
24 15 20 21 12 12 11 9 13 9 13 13 10 7 16 17 18 11 15 17 13 14 30 33 36 33 39 41 43 44 44 45 46 46 46 46 47 46 45 45 45 45 46 46 46 47 46 46 47 47 47 48 48 48 48 48 49 48 49 49 49 50 50 50 50 51 50 51 51 51 51 50 51 52 52 52 52 52 51 50 50 50 50 50 51 51
17 27 17 26 19 11 11 12 12 12 14 14 13 12 9 19 23 16 22 12 12 20 27 31 31 34 40 44 44 44 45 45 45 45 46 46 46 46 45 45 45 45 46 46 46 46 46 46 46 46 47 48 48 47 47 46 47 48 49 48 49 48 49 50 50 50 50 51 51 50 49 49 50 51 51 50 50 50 49 49 50 49 49 49 49 50
18 22 19 30 17 10 13 15 10 12 13 15 15 15 12 13 11 7 14 19 22 25 28 30 27 34 43 47 45 45 46 45 45 45 46 46 45 45 45 45 45 45 45 45 46 45 45 45 44 44 44 45 45 45 45 46 46 46 46 47 47 47 48 49 49 49 49 49 49 49 49 48 49 49 49 49 49 50 49 49 49 48 48 48 48 49
25 29 28 20 21 17 13 13 11 14 14 13 10 14 11 18 16 11 9 15 16 26 32 31 32 33 45 46 47 46 46 46 46 45 44 44 44 44 44 45 45 45 45 45 44 43 44 44 44 44 44 43 43 44 44 45 45 45 45 46 46 46 47 48 48 48 47 47 47 48 48 47 47 48 48 48 48 48 49 49 49 48 47 47 47 47
46 24 20 22 18 18 19 20 15 13 11 11 13 16 13 17 17 13 22 23 20 25 27 28 31 35 45 48 46 46 46 45 45 44 44 44 44 44 44 44 44 44 44 43 43 43 42 42 42 42 43 43 43 43 44 44 44 44 44 45 46 46 46 46 47 47 46 46 46 47 47 47 46 47 47 47 47 47 47 48 48 49 48 47 47 46
21 24 22 17 18 21 24 23 18 14 11 20 18 20 13 21 19 26 27 24 18 23 28 25 27 34 43 47 46 45 44 43 43 43 43 43 43 43 43 44 44 43 42 42 42 41 42 42 42 42 43 43 43 42 43 43 44 43 44 45 45 45 45 46 46 46 46 46 45 46 46 46 46 46 46 46 46 46 47 47 47 48 48 47 47 46
25 28 26 19 16 15 13 14 17 16 12 18 25 19 13 10 21 15 12 15 15 26 29 28 32 39 44 45 44 43 43 43 43 43 43 43 43 43 43 44 44 43 42 41 42 42 42 42 42 41 41 42 42 42 42 42 42 43 43 44 45 44 44 45 45 45 45 45 45 45 45 46 45 45 45 45 45 45 46 46 46 46 47 47 47 46
25 29 28 27 21 20 22 28 28 27 17 10 17 15 24 19 19 22 25 19 18 27 28 34 37 38 40 42 42 42 42 42 42 42 42 42 42 43 43 43 43 43 42 42 41 41 41 41 41 41 41 42 42 42 42 42 41 42 43 43 44 44 44 44 44 45 45 45 44 44 45 45 45 45 45 45 45 45 45 45 46 46 45 46 46 46
27 20 26 30 30 27 30 31 34 26 22 24 19 17 19 22 27 23 18 19 25 29 27 38 39 38 39 41 42 42 42 42 42 42 41 42 42 42 43 42 43 41 41 41 41 40 40 40 40 40 41 41 41 42 42 42 42 42 43 43 43 43 44 44 44 44 44 44 44 43 44 44 44 44 45 46 45 44 44 44 45 45 44 45 45 46
24 21 26 32 35 38 35 34 37 38 37 34 32 26 20 36 26 22 25 32 29 22 25 39 40 38 40 42 42 42 42 41 41 41 41 42 42 42 41 40 40 40 40 40 40 40 40 40 40 40 40 41 41 41 41 41 41 42 42 43 43 43 43 43 43 43 43 44 44 43 43 44 45 44 44 44 45 44 44 44 44 44 43 43 44 45
26 27 32 35 36 38 39 38 39 38 38 38 39 39 39 38 35 36 37 37 30 27 36 40 40 39 41 42 42 42 42 41 41 42 42 41 42 41 40 39 39 39 40 40 40 40 40 40 40 40 40 40 40 41 41 41 41 41 42 42 42 43 43 43 43 43 43 43 43 43 43 43 44 43 43 43 44 44 43 43 44 43 42 43 43 43
28 29 36 34 32 35 37 38 38 38 37 36 37 38 38 38 38 38 38 39 40 39 40 39 39 37 41 42 42 42 42 42 42 41 41 41 41 40 39 39 39 39 39 39 39 40 40 40 40 40 40 40 40 40 40 40 41 41 41 42 42 42 42 42 42 42 42 42 42 42 42 42 42 42 41 42 43 43 43 43 44 43 42 42 42 42
34 30 35 31 30 30 37 36 36 37 36 36 35 35 36 35 35 36 35 37 38 38 39 38 36 35 40 42 42 42 41 41 41 41 41 41 40 39 39 39 39 39 39 40 42 41 41 41 39 40 40 40 40 40 40 40 40 41 41 41 41 41 42 42 41 41 41 41 41 41 41 41 41 41 40 40 41 42 42 42 43 43 42 42 42 41
34 32 28 28 30 28 33 36 35 32 31 30 31 33 36 36 36 36 37 39 40 40 37 35 37 39 41 42 41 41 41 41 41 41 41 40 39 39 39 39 39 40 39 39 39 39 39 39 40 40 40 40 40 40 40 40 39 40 41 41 41 42 41 41 41 40 40 40 40 40 40 40 40 39 39 39 40 41 41 41 41 42 42 42 42 41
33 31 29 31 29 29 33 33 33 30 24 27 34 38 37 36 36 36 36 38 38 39 37 38 39 41 41 41 40 40 41 41 42 41 41 39 38 38 39 39 39 39 39 39 39 39 39 39 40 40 40 40 40 40 40 41 39 40 41 41 41 40 40 40 40 40 40 40 40 40 40 39 39 38 38 39 39 40 39 40 40 40 41 41 42 41
33 33 30 30 30 30 30 31 25 22 25 35 38 38 38 37 36 36 36 37 38 39 39 39 40 40 41 41 41 41 40 39 39 38 38 39 39 39 39 39 38 38 38 38 38 39 39 40 39 39 39 39 39 39 39 39 39 39 39 39 39 39 39 39 39 39 39 39 39 40 39 39 38 37 37 38 38 39 39 39 39 40 40 40 40 41
31 32 30 30 27 29 30 28 22 21 34 38 37 37 38 37 36 36 35 36 37 37 39 39 39 40 40 40 39 38 38 38 38 39 39 39 39 39 39 38 38 38 38 38 38 39 39 39 39 39 39 41 39 39 39 38 39 39 39 39 39 39 39 38 38 38 38 38 38 39 39 38 37 37 37 37 37 38 38 38 38 39 40 40 39 40
35 34 33 30 30 30 30 30 30 35 35 35 33 34 35 33 34 33 32 33 37 38 39 39 39 39 38 38 38 38 38 38 38 38 40 39 39 39 38 38 38 38 39 39 39 39 39 39 39 39 40 39 39 39 39 39 39 39 39 38 39 38 38 38 37 37 38 37 38 39 38 38 37 37 36 37 37 37 37 38 38 38 39 38 38 38
37 32 32 31 27 29 31 30 31 31 29 32 36 38 39 40 38 37 34 32 38 37 39 39 38 37 37 37 37 37 38 36 34 35 40 39 39 39 39 39 39 38 38 38 39 39 39 39 39 40 39 39 39 39 39 39 38 38 38 38 38 38 38 37 37 38 38 37 37 38 38 38 37 37 37 36 36 37 37 37 38 38 39 38 37 37
34 34 33 31 30 29 28 29 29 27 29 33 36 38 41 40 38 38 33 30 35 37 38 38 37 37 37 36 36 37 36 34 33 36 39 39 38 38 38 38 38 38 39 39 39 39 39 39 39 40 39 38 38 38 38 38 38 38 38 38 37 37 37 37 37 37 37 37 37 38 38 38 37 37 36 36 36 37 37 37 37 38 38 38 37 37
33 31 31 30 27 27 29 28 26 28 28 32 37 39 40 39 38 31 24 28 36 37 38 38 37 37 37 37 37 36 35 33 33 37 39 39 38 38 38 38 38 38 38 38 38 38 38 40 36 34 34 35 37 38 38 38 38 38 37 36 36 37 37 37 37 37 37 38 38 38 38 38 39 38 36 36 36 37 37 37 37 37 37 37 37 37
29 29 30 29 29 29 29 28 29 30 33 37 38 40 38 39 32 25 24 27 37 38 39 39 37 37 37 37 37 36 36 37 37 38 39 38 38 38 38 38 37 37 37 37 38 39 36 35 34 33 33 35 36 38 38 38 38 37 37 36 36 36 36 36 37 38 38 38 38 38 38 38 38 37 37 36 36 36 37 37 36 36 36 36 37 36
27 28 30 30 30 29 24 29 29 30 33 38 39 40 39 34 27 29 31 36 37 37 37 37 37 37 37 37 38 37 37 38 39 38 38 37 37 37 37 36 36 36 36 37 37 36 35 34 34 34 34 35 36 37 37 37 37 36 36 36 35 35 36 37 37 37 38 38 38 38 37 38 38 38 38 37 37 36 36 36 37 37 36 35 35 35
30 28 29 28 27 27 25 26 28 26 31 40 40 38 38 30 29 33 36 37 37 37 37 37 36 36 36 37 37 38 38 38 37 37 37 37 37 36 35 35 35 35 35 34 34 35 34 32 32 33 33 35 35 36 36 36 36 35 35 35 34 36 36 37 37 37 38 38 38 38 37 37 37 37 38 37 36 35 35 35 36 36 36 35 35 35
36 30 28 26 28 28 25 26 27 32 35 40 38 34 36 36 36 36 36 35 37 37 36 36 36 36 37 37 37 37 38 37 37 37 37 37 36 35 34 34 34 34 34 34 34 34 33 31 32 33 33 34 35 35 35 36 36 35 34 33 35 36 36 36 36 37 37 37 37 37 37 37 37 36 36 36 36 36 35 35 35 35 36 35 35 34
34 32 32 31 31 26 27 28 34 36 36 37 37 36 36 37 37 36 36 36 36 36 37 36 36 37 37 37 37 37 37 38 38 39 39 38 35 33 33 33 33 33 32 31 31 33 31 31 32 33 33 33 33 33 34 35 35 34 32 32 35 35 35 35 36 36 36 36 37 36 36 36 36 36 35 35 35 35 35 35 35 34 34 35 34 33
38 38 36 35 34 36 37 36 37 36 37 37 37 37 36 36 37 37 36 36 36 36 36 36 37 37 37 37 37 37 37 37 37 37 36 35 33 33 34 32 32 32 31 32 32 31 32 33 32 31 31 31 32 33 34 33 34 33 32 33 35 35 36 36 35 35 35 35 36 36 37 36 35 35 35 35 36 36 35 34 35 34 35 33 32 32
37 38 36 34 36 33 31 37 36 36 37 37 37 37 37 37 36 36 36 36 36 37 38 38 38 39 38 38 38 38 37 36 35 34 34 33 33 33 31 31 30 30 30 30 32 32 32 31 30 30 31 30 31 32 32 31 32 33 33 33 34 35 35 35 34 34 33 34 35 35 35 35 34 34 34 33 34 35 36 35 33 33 34 32 32 32
32 37 35 35 34 31 32 35 36 37 37 37 37 36 36 37 37 37 37 38 38 38 38 38 38 38 38 39 38 36 35 34 34 33 33 33 33 32 30 30 30 30 31 31 32 32 32 31 30 31 31 31 31 33 33 33 33 33 32 32 32 32 32 33 32 29 30 32 34 35 35 35 35 35 33 33 33 32 32 33 34 33 33 32 32 31
34 37 31 35 33 36 36 36 37 37 37 37 37 37 37 37 37 37 37 37 37 37 37 37 37 38 36 35 35 35 34 34 34 33 33 32 31 30 30 30 30 30 31 30 31 31 30 31 31 32 32 31 31 31 30 30 31 30 30 31 32 31 32 32 32 32 31 31 31 33 35 35 35 34 33 33 32 32 32 33 34 34 34 32 31 32
35 32 36 35 34 34 34 35 36 33 33 35 37 37 37 36 36 36 36 36 36 36 36 35 35 36 35 35 35 34 34 34 34 33 31 30 30 30 30 30 30 30 30 30 31 31 33 33 32 31 31 30 31 31 31 31 32 33 32 31 31 32 32 32 31 31 31 32 30 30 31 35 35 36 35 33 32 32 33 34 36 34 33 33 36 34
35 35 35 33 33 33 35 36 37 36 36 37 37 37 36 36 36 36 36 36 36 36 35 35 35 35 35 35 35 34 34 33 32 30 29 29 30 30 30 30 29 30 30 31 31 31 30 31 33 31 30 31 32 31 31 31 32 32 34 33 31 32 32 32 32 31 31 32 31 31 30 30 31 34 35 35 33 33 32 34 33 34 34 35 36 36